Location: Unspecified
(49.8670°N, 0.0000°E)
Time: 21:38:15
(UTC+00:00)

S-56A Canister/Altair - Pass Details

Date: 19 June 2019
Orbit: 632 x 2500 km, 38.9° (Epoch: 17 July)

Event Time Altitude Azimuth Distance (km) Brightness Sun altitude
Rises 21:23:39 0° 261° (W) 3,323 11.2 -8.8°
Reaches altitude 10° 21:27:42 10° 232° (SW) 2,159 9.8 -9.2°
Maximum altitude 21:29:43 13° 207° (SSW) 1,912 9.3 -9.4°
Drops below altitude 10° 21:31:39 10° 181° (S) 2,026 9.2 -9.5°
Enters shadow 21:32:09 - 176° (S) 2,109 9.3 -9.6°
Sets 21:35:10 0° 151° (SSE) 2,911 - -9.8°
